Location: Bannatyne
(13.0833°N, 59.5333°W)
Time: 04:22:18
(UTC+00:00)

deb Explorer IX - Pass Details

Date: 02 February 2020
Orbit: 549 x 1099 km, 38.8° (Epoch: 19 February)

Event Time Altitude Azimuth Distance (km) Brightness Sun altitude
Rises 03:16:08 0° 327° (NNW) 3,821 - -76.0°
Reaches altitude 10° 03:19:56 10° 346° (NNW) 2,916 - -76.9°
Maximum altitude 03:24:29 17° 26° (NNE) 2,429 - -77.9°
Drops below altitude 10° 03:29:02 10° 65° (ENE) 2,931 - -79.0°
Sets 03:32:51 0° 84° (E) 3,849 - -79.8°
